www.pogodaiklimat.ru

Погода и климат >> Архив погоды >> Мьянма >> Проме


ПОГОДА в Проме

  • Прогноз погоды в Проме
  • Монитор погоды в Проме

АРХИВ ПОГОДЫ в Проме

Время (UTC), дата Ветер
(напр.,м/с)
 
Видим.   Явления Облачность Т
(С)
Тd
(С)
f
(%)
Тe
(С)
Тes
(С)
Комфортность P
(гПа)
Po
(гПа)
Тmin
(С)
Tmax
(С)
R
(мм)
R24
(мм)
S
(см)
09 18.06 ЮЗ 1 9000 м 10/6 600 м
[Cb cap Ac trans Ci fib]
+31.2 +26.7 77 +48 +51 опасность
перегрева
999.1 992.4
12 18.06 ЮЗ 2 6000 м 10/6 600 м
[Cb cap Ac trans Ci fib]
+30.0 +25.3 76 +44 +44 опасность
перегрева
998.9 992.2 +31.4 35
00 19.06 штиль 0 6000 м 9/6 600 м
[Cb cap Ac trans]
+26.0 +24.6 92 +37 +37 очень
душно
1001.2 994.4 +25.0
03 19.06 штиль 0 8000 м 9/6 600 м
[Cb cap Ac trans]
+27.4 +25.6 90 +40 +45 очень
душно
1001.8 995.0
06 19.06 штиль 0 8000 м 10/6 600 м
[Cb cap Ac trans]
+29.0 +25.9 83 +43 +48 опасность
перегрева
1001.7 994.9
09 19.06 СВ 2 8000 м 10/6 600 м
[Cb cap Ac trans]
+29.0 +25.9 83 +43 +45 опасность
перегрева
1000.6 993.8
12 19.06 ЮЗ 1 6000 м 10/6 600 м
[Cb cap Ac trans Ci fib]
+28.0 +25.0 84 +40 +40 очень
душно
999.9 993.1 +32.0
00 20.06 штиль 0 6000 м {дождь} 10/6 600 м
[Cb cap Ac As]
+26.8 +25.6 93 +39 +40 очень
душно
1002.4 995.6 +25.4 1
03 20.06 штиль 0 8000 м 10/6 600 м
[Cb cap Ac As]
+28.4 +25.0 82 +41 +43 опасность
перегрева
1003.9 997.1
06 20.06 штиль 0 9000 м 9/6 600 м
[Cb cap Ci fib]
+30.0 +25.3 76 +44 +54 опасность
перегрева
1003.3 996.5
09 20.06 штиль 0 8000 м 10/6 600 м
[Cb cap Ac trans Ci fib]
+31.4 +25.4 71 +46 +49 опасность
перегрева
1002.1 995.4
12 20.06 штиль 0 6000 м 10/6 600 м
[Cb cap Ac trans Ci fib]
+28.4 +25.0 82 +41 +41 опасность
перегрева
1001.9 995.1 +32.0
00 21.06 штиль 0 6000 м 10/6 600 м
[Cb cap Ac trans Ci fib]
+26.0 +24.6 92 +37 +37 очень
душно
1003.8 996.9 +24.8
03 21.06 штиль 0 8000 м 10/6 600 м
[Cb cap Ac As]
+27.8 +25.0 85 +40 +42 очень
душно
1004.8 998.0
06 21.06 штиль 0 9000 м {дождь} 10/6 600 м
[Cb cap Ac As]
+29.5 +26.6 84 +45 +49 опасность
перегрева
1005.3 998.5
09 21.06 штиль 0 8000 м 9/6 600 м
[Cb cap Ac trans Ci fib]
+31.4 +26.7 76 +48 +52 опасность
перегрева
1002.9 996.2
12 21.06 штиль 0 6000 м 6/5 600 м
[Cb cap Ci fib]
+31.0 +26.7 78 +48 +48 опасность
перегрева
1002.1 995.4 +31.8 4
00 22.06 штиль 0 6000 м 9/6 600 м
[Cb cap Ac trans Ci fib]
+26.4 +24.6 90 +37 +38 очень
душно
1005.6 998.7 +25.0
03 22.06 штиль 0 9000 м 9/6 600 м
[Cb cap Ac trans Ci fib]
+30.0 +23.9 70 +41 +46 опасность
перегрева
1006.0 999.2
06 22.06 штиль 0 9000 м 9/6 600 м
[Cb cap Ac trans Ci fib]
+33.0 +25.8 66 +48 +56 опасность
перегрева
1005.0 998.3
09 22.06 штиль 0 9000 м 9/6 600 м
[Cb cap Ac trans Ci fib]
+35.0 +24.0 53 +47 +50 опасность
перегрева
1002.8 996.1
12 22.06 штиль 0 6000 м 9/6 600 м
[Cb cap Ac trans Ci fib]
+33.0 +25.8 66 +48 +48 опасность
перегрева
1002.2 995.5 +35.2
00 23.06 штиль 0 6000 м 5/3 600 м
[Cu Sc Ci fib]
+27.4 +25.6 90 +40 +41 очень
душно
1003.1 996.3 +26.4
03 23.06 штиль 0 9000 м 3/0
[Ci fib]
+30.6 +26.7 80 +48 +65 опасность
перегрева
1003.5 996.7
06 23.06 штиль 0 9000 м 6/5 600 м
[Cu Sc Ci fib]
+32.4 +26.5 71 +49 +63 опасность
перегрева
1003.3 996.6
09 23.06 штиль 0 9000 м 6/5 600 м
[Cu Sc Ci fib]
+36.4 +26.4 57 +53 +60 опасность
перегрева
1001.5 994.9
12 23.06 штиль 0 6000 м 6/5 600 м
[Cu Sc Ci fib]
+34.6 +26.6 63 +52 +52 опасность
перегрева
1000.8 994.2 +36.6
18 23.06 штиль 0 6000 м 5/4 600 м
[Cu Sc Ci fib]
+28.0 +25.0 84 +40 +40 очень
душно
1004.0 997.2 +27.0
00 24.06 штиль 0 6000 м 5/4 600 м
[Cu Sc Ci fib]
+28.0 +25.0 84 +40 +41 очень
душно
1004.0 997.2 +27.0
03 24.06 штиль 0 9000 м 4/3 600 м
[Cu med, cong Ci fib]
+32.5 +26.5 71 +49 +62 опасность
перегрева
1005.0 998.3
06 24.06 штиль 0 9000 м 5/3 600 м
[Cu med, cong Ci fib]
+36.0 +26.4 58 +53 +72 опасность
перегрева
1004.8 998.2
09 24.06 штиль 0 9000 м 6/4 600 м
[Cu med, cong Ci fib]
+36.5 +24.9 51 +49 +57 опасность
перегрева
1002.4 995.8
12 24.06 штиль 0 6000 м 6/4 600 м
[Cu Sc Ci fib]
+35.0 +23.7 52 +46 +46 опасность
перегрева
1001.6 995.0 +38.2
00 25.06 штиль 0 6000 м 6/4 600 м
[Cu Sc Ci fib]
+28.0 +26.8 93 +44 +44 опасность
перегрева
1006.5 999.7 +27.0
03 25.06 штиль 0 9000 м 9/6 600 м
[Cb cap Ac trans Ci fib]
+30.0 +26.6 82 +46 +51 опасность
перегрева
1005.4 998.6
06 25.06 штиль 0 9000 м 5/3 600 м
[Cu Sc Ac trans]
+34.5 +25.7 60 +49 +67 опасность
перегрева
1004.9 998.2

 

Местоположение метеостанции Проме (Мьянма): широта 18.80 долгота 95.22 высота над уровнем моря 60 м.

В архиве по умолчанию представлена погода в Проме за последнюю неделю. Архивные данные за месяц целиком и за предыдущие месяцы, начиная с января 2011 года, Вы можете получить, выбрав интересующий диапазон дат из раскрывающегося списка и нажав кнопку "Ввод!".


*Определитесь, кто Вы:
робот инопланетянин человек

Внимание! Время в таблицах - всемирное. Для получения местного времени необходимо прибавить поправку, которая равна 6.5 ч.

Смотрите также архив погоды в соседних городах и на ближайших метеорологических станциях:

Погода в Тандве (Мьянма) (99 км)
Погода в Хинтаде (Мьянма) (127 км)
Погода в Таунгу (Мьянма) (132 км)
Погода в Пьинмане (Мьянма) (147 км)
Погода в Гва (Мьянма) (152 км)
Погода в Магуэе (Мьянма) (153 км)
Погода в Минбу (Мьянма) (156 км)
Погода в Манаунге (Мьянма) (157 км)
Погода в Кяокпю (Мьянма) (189 км)
Погода в Хмавби (Мьянма) (207 км)

Пояснения к столбцам:

Ветер - указаны скорость ветра в м/с - средняя за 10 мин, порывы в срок и между сроками (в фигурных скобках) и направление, откуда дует ветер: С - северный, СВ - северо-восточный, В - восточный, ЮВ - юго-восточный, Ю - южный, ЮЗ - юго-западный, З - западный, СЗ - северо-западный.
Видимость - горизонтальная дальность видимости в метрах или километрах. При видимости от 1 до 10 км при отсутствии осадков обычно наблюдается дымка, при ухудшении видимости до 1 км и менее - туман. В сухую погоду видимость может ухудшаться дымом, пылью или мглою.
Явления - указаны атмосферные явления, наблюдавшиеся в срок или в последний час перед сроком; фигурными скобками обозначены явления, наблюдавшиеся между сроками (за 1-3 часа до срока); квадратными скобками обозначены град или гололедные отложения с указанием их диаметра в мм.
Облачность - указаны через наклонную черту общая и нижняя облачность в баллах и высота нижней границы облаков в метрах; квадратными скобками обозначены формы облаков: Ci - перистые, Cs - перисто-слоистые, Cc - перисто-кучевые, Ac - высококучевые, As - высокослоистые, Sc - слоисто-кучевые, Ns - слоисто-дождевые, Cu - кучевые, Cb - кучево-дождевые. Подробнее классификацию облаков см. в Атласе облаков (PDF).
T - Температура воздуха - температура, измеренная на высоте 2 м над землей.
Td - Температура точки росы - температура, при понижении до которой содержащийся в воздухе водяной пар достигнет насыщения.
f - Относительная влажность воздуха - влажноcть воздуха, измеренная на высоте 2 м над землей.
Te - Эффективная температура - температура, которую ощущает одетый по сезону человек в тени. Характеристика душности погоды. При расчете учитывается влияние влажности воздуха и скорости ветра на теплоощущения человека.
Tes - Эффективная температура на солнце - температура, которую ощущает человек, с поправкой на солнечный нагрев. Характеристика знойности погоды. Зависит от высоты солнца над горизонтом, облачности и скорости ветра. Ночью, в пасмурную погоду, а также при ветре 12 м/с и более поправка равна нулю.
P - Атмосферное давление - приведенное к уровню моря атмосферное давление.
Po - Атмосферное давление - измеренное на уровне метеостанции атмосферное давление.
Tmin - Минимальная температура - минимум температуры воздуха на высоте 2 м над землей.
Tmax - Максимальная температура - максимум температуры воздуха на высоте 2 м над землей.
R - Количество осадков - Количество выпавших осадков за период времени, мм. При наведении курсора мыши на число - период времени, за который выпало указанное количество осадков.
R24 - Количество осадков - Количество выпавших осадков за 24 часа, мм.
S - Снежный покров - Высота снежного покрова, см. При наведении курсора мыши на число - состояние снежного покрова и степень покрытия местности в баллах.